User: anonymous   Login
Location: Unspecified
(0.0000°N, 0.0000°E)
Time: 16:49:38
(UTC+02:00)
Language:

Milstar 3 - Orbit

View from above orbital plane
View from above orbital plane
View from above satellite
View from above satellite

Ground track
Ground track

The orbit data is extracted from the following two-line orbital elements,

1 25724U 99023A   15215.74947761 0.00000010  00000-0  12499-3 0    04
2 25724  28.2266 121.4319 2134299 170.3514 189.6481  9.37474988    06
Epoch (UTC): 03 August 2015 17:59:14
Eccentricity: 0.2134299
inclination: 28.2266°
perigee height: 1095 km
apogee height: 5150 km
right ascension of ascending node: 121.4319°
argument of perigee: 170.3514°
revolutions per day: 9.37474988
mean anomaly at epoch: 189.6481°
orbit number at epoch: 0

The dashed part of the orbit path shows where the satellite is in the earth's shadow,  

DLR